sat.trackr.live / text

‹ back to catalog

NUSAT-47

NORAD 66743 · 2025-276CF

PAYLOAD ACTIVE UNKNOWN

§ Identity

Operator
Country
ARGN
Launch date
2025-11-28
Launch site
AFWTR
Launch vehicle
Mass (kg)
RCS (m²)

External: N2YO · Heavens-Above · Gunter

§ Orbital elements

Epoch: 2026-09-20T12:09:23.151744Z

Period
94.66 min
Inclination
97.4108°
Eccentricity
0.0002815
Mean motion
15.21187832 rev/d
Perigee alt
500.3 km
Apogee alt
504.2 km
Semi-major
6,880.4 km
B*
1.6344e-4
RAAN
335.6053°
Arg perigee
60.2372°
Mean anomaly
299.9144°
Rev number
4,491

§ Raw data

NUSAT-471 66743U 25276CF  26263.50651796  .00003575  00000+0  16344-3 0  99962 66743  97.4108 335.6053 0002815  60.2372 299.9144 15.21187832 44912

JSON: /api/v1/satellites/66743 · /tle

For live sub-satellite position, see the globe view (requires WebGL).

§ Visibility from observer

Set your observer location to see the next 7 days of passes ≥ 10°. The values pass through the URL so the page stays shareable.

No JS? Fill the form by hand. The geolocation button needs JavaScript.